| time (UTC) | temp C | wind direction | speed KPH | gust KPH | rain 1hr cm | rain 24hr cm | rain mn cm | humidity % | barometer mb |
| 20260502123053 | 20 | 354 | 0.0 | 3.2 | 0.00 | 0.00 | 0.00 | 49 | 1016.6 |
| 20260502121556 | 18 | 359 | 3.2 | 9.7 | 0.00 | 0.00 | 0.00 | 51 | 1016.8 |
| 20260502114543 | 18 | 248 | 1.6 | 6.4 | 0.00 | 0.00 | 0.00 | 51 | 1017.3 |
| 20260502113041 | 18 | 304 | 1.6 | 8.0 | 0.00 | 0.00 | 0.00 | 50 | 1017.4 |
| 20260502111541 | 18 | 328 | 4.8 | 12.9 | 0.00 | 0.00 | 0.00 | 51 | 1017.7 |
| 20260502110038 | 18 | 26 | 3.2 | 11.3 | 0.00 | 0.00 | 0.00 | 55 | 1017.9 |
| 20260502104543 | 18 | 316 | 1.6 | 6.4 | 0.00 | 0.00 | 0.00 | 55 | 1017.8 |
| 20260502103048 | 18 | 71 | 4.8 | 11.3 | 0.00 | 0.00 | 0.00 | 55 | 1018.4 |
| 20260502101543 | 18 | 289 | 0.0 | 4.8 | 0.00 | 0.00 | 0.00 | 58 | 1018.3 |
| 20260502091520 | 15 | 143 | 0.0 | 4.8 | 0.00 | 0.00 | 0.00 | 69 | 1018.8 |
| 20260502071502 | 11 | 337 | 0.0 | 1.6 | 0.00 | 0.00 | 0.00 | 85 | 1019.3 |
| 20260502070001 | 11 | 333 | 0.0 | 1.6 | 0.00 | 0.00 | 0.00 | 85 | 1019.2 |
| 20260502064602 | 10 | 44 | 0.0 | 1.6 | 0.00 | 0.00 | 0.00 | 87 | 1019.3 |
| 20260502063105 | 9 | 39 | 0.0 | 3.2 | 0.00 | 0.00 | 0.00 | 88 | 1019.4 |
| 20260502061556 | 9 | 33 | 0.0 | 1.6 | 0.00 | 0.00 | 0.00 | 90 | 1019.3 |
| 20260502060109 | 8 | 32 | 0.0 | 4.8 | 0.00 | 0.00 | 0.00 | 92 | 1019.1 |
| 20260502054555 | 8 | 35 | 1.6 | 4.8 | 0.00 | 0.00 | 0.00 | 91 | 1019.2 |
| 20260502053103 | 8 | 43 | 0.0 | 4.8 | 0.00 | 0.00 | 0.00 | 91 | 1019.2 |
| 20260502051600 | 8 | 1 | 0.0 | 3.2 | 0.00 | 0.00 | 0.00 | 92 | 1019.2 |
| 20260502050058 | 7 | 37 | 0.0 | 1.6 | 0.00 | 0.00 | 0.00 | 91 | 1019.2 |
| 20260502044553 | 7 | 38 | 0.0 | 1.6 | 0.00 | 0.00 | 0.00 | 91 | 1019.1 |
| 20260502043053 | 7 | 51 | 0.0 | 1.6 | 0.00 | 0.00 | 0.00 | 91 | 1019.1 |
| 20260502041550 | 7 | 51 | 0.0 | 0.0 | 0.00 | 0.00 | 0.00 | 89 | 1019.1 |
| 20260502040049 | 8 | 51 | 0.0 | 0.0 | 0.00 | 0.00 | 0.00 | 88 | 1019.2 |
| 20260502034544 | 8 | 51 | 0.0 | 1.6 | 0.00 | 0.00 | 0.00 | 89 | 1019.3 |
| 20260502033046 | 8 | 51 | 0.0 | 0.0 | 0.00 | 0.00 | 0.00 | 89 | 1019.3 |
| 20260502031543 | 8 | 51 | 0.0 | 1.6 | 0.00 | 0.00 | 0.00 | 89 | 1019.5 |
| 20260502030040 | 8 | 51 | 0.0 | 1.6 | 0.00 | 0.00 | 0.00 | 87 | 1019.3 |
| 20260502024538 | 9 | 51 | 0.0 | 0.0 | 0.00 | 0.00 | 0.00 | 87 | 1019.4 |
| 20260502023035 | 10 | 51 | 0.0 | 0.0 | 0.00 | 0.00 | 0.00 | 86 | 1019.3 |
| 20260502021534 | 10 | 51 | 0.0 | 1.6 | 0.00 | 0.00 | 0.00 | 87 | 1019.4 |
| 20260502020031 | 10 | 51 | 0.0 | 0.0 | 0.00 | 0.00 | 0.00 | 86 | 1019.5 |
| 20260502014532 | 10 | 51 | 0.0 | 1.6 | 0.00 | 0.00 | 0.00 | 86 | 1019.6 |
| 20260502013026 | 11 | 51 | 0.0 | 1.6 | 0.00 | 0.00 | 0.00 | 86 | 1019.8 |
| 20260502011542 | 11 | 51 | 0.0 | 1.6 | 0.00 | 0.00 | 0.00 | 85 | 1020.0 |
| 20260502010023 | 11 | 37 | 0.0 | 3.2 | 0.00 | 0.00 | 0.00 | 85 | 1020.1 |
| 20260502004519 | 12 | 314 | 0.0 | 4.8 | 0.00 | 0.00 | 0.00 | 87 | 1020.5 |
| 20260502003024 | 12 | 49 | 0.0 | 3.2 | 0.00 | 0.00 | 0.00 | 87 | 1020.6 |
| 20260502001516 | 12 | 23 | 0.0 | 1.6 | 0.00 | 0.00 | 0.00 | 85 | 1020.5 |
| 20260502000013 | 12 | 13 | 0.0 | 1.6 | 0.00 | 0.00 | 0.00 | 84 | 1020.5 |
| 20260501234511 | 13 | 13 | 0.0 | 1.6 | 0.00 | 0.00 | 0.00 | 84 | 1020.5 |
| 20260501233011 | 12 | 23 | 0.0 | 1.6 | 0.00 | 0.00 | 0.00 | 85 | 1020.6 |
| 20260501231514 | 13 | 23 | 0.0 | 1.6 | 0.00 | 0.00 | 0.00 | 84 | 1020.6 |
| 20260501230008 | 13 | 23 | 0.0 | 1.6 | 0.00 | 0.00 | 0.00 | 83 | 1020.6 |
| 20260501224505 | 13 | 23 | 0.0 | 1.6 | 0.00 | 0.00 | 0.00 | 82 | 1020.7 |
| 20260501223005 | 13 | 23 | 0.0 | 1.6 | 0.00 | 0.00 | 0.00 | 81 | 1020.6 |
| 20260501221504 | 14 | 22 | 0.0 | 1.6 | 0.00 | 0.00 | 0.00 | 79 | 1020.6 |
| 20260501220003 | 15 | 23 | 0.0 | 1.6 | 0.00 | 0.00 | 0.00 | 79 | 1020.7 |
| 20260501214506 | 15 | 32 | 0.0 | 1.6 | 0.00 | 0.00 | 0.00 | 79 | 1020.7 |
| 20260501213002 | 15 | 32 | 0.0 | 1.6 | 0.00 | 0.00 | 0.00 | 79 | 1020.6 |
| 20260501211502 | 15 | 32 | 0.0 | 3.2 | 0.00 | 0.00 | 0.00 | 79 | 1020.7 |
| 20260501210001 | 15 | 36 | 0.0 | 3.2 | 0.00 | 0.00 | 0.00 | 79 | 1020.6 |
| 20260501204501 | 15 | 44 | 0.0 | 3.2 | 0.00 | 0.00 | 0.00 | 79 | 1020.6 |
| 20260501203101 | 15 | 27 | 0.0 | 1.6 | 0.00 | 0.00 | 0.00 | 79 | 1020.5 |
| 20260501201600 | 15 | 309 | 0.0 | 0.0 | 0.00 | 0.00 | 0.00 | 77 | 1020.4 |
| 20260501200059 | 15 | 308 | 0.0 | 1.6 | 0.00 | 0.00 | 0.00 | 77 | 1020.4 |
| 20260501194559 | 16 | 16 | 0.0 | 3.2 | 0.00 | 0.00 | 0.00 | 75 | 1020.1 |
| 20260501193058 | 16 | 24 | 0.0 | 3.2 | 0.00 | 0.00 | 0.00 | 73 | 1020.1 |
| 20260501191557 | 17 | 335 | 1.6 | 4.8 | 0.00 | 0.00 | 0.00 | 71 | 1020.1 |
| 20260501190115 | 18 | 350 | 1.6 | 6.4 | 0.00 | 0.00 | 0.00 | 69 | 1020.0 |
| 20260501184558 | 18 | 343 | 0.0 | 8.0 | 0.00 | 0.00 | 0.00 | 68 | 1019.8 |
| 20260501183040 | 19 | 19 | 1.6 | 9.7 | 0.00 | 0.00 | 0.00 | 66 | 1019.7 |
| 20260501181538 | 20 | 331 | 4.8 | 11.3 | 0.00 | 0.00 | 0.00 | 65 | 1019.6 |
| 20260501180038 | 20 | 24 | 3.2 | 12.9 | 0.00 | 0.00 | 0.00 | 64 | 1019.7 |
| 20260501174537 | 20 | 60 | 4.8 | 16.1 | 0.00 | 0.00 | 0.00 | 62 | 1019.6 |
| 20260501173037 | 20 | 18 | 1.6 | 8.0 | 0.00 | 0.00 | 0.00 | 62 | 1019.5 |
| 20260501171536 | 21 | 300 | 0.0 | 8.0 | 0.00 | 0.00 | 0.00 | 61 | 1019.5 |
| 20260501170037 | 21 | 20 | 1.6 | 16.1 | 0.00 | 0.00 | 0.00 | 60 | 1019.6 |
| 20260501164535 | 22 | 319 | 3.2 | 11.3 | 0.00 | 0.00 | 0.00 | 58 | 1019.5 |
| 20260501163034 | 21 | 41 | 4.8 | 14.5 | 0.00 | 0.00 | 0.00 | 59 | 1019.5 |
| 20260501161534 | 21 | 46 | 3.2 | 19.3 | 0.00 | 0.00 | 0.00 | 58 | 1019.6 |
| 20260501160030 | 22 | 40 | 4.8 | 14.5 | 0.00 | 0.00 | 0.00 | 50 | 1019.5 |
| 20260501154549 | 23 | 49 | 4.8 | 17.7 | 0.00 | 0.00 | 0.00 | 45 | 1019.5 |
| 20260501153027 | 24 | 334 | 6.4 | 16.1 | 0.00 | 0.00 | 0.00 | 44 | 1019.4 |
| 20260501151525 | 24 | 39 | 4.8 | 20.9 | 0.00 | 0.00 | 0.00 | 43 | 1019.5 |
| 20260501150023 | 25 | 308 | 4.8 | 14.5 | 0.00 | 0.00 | 0.00 | 42 | 1019.6 |